Time,TemperatureF,DewpointF,PressureIn,WindDirection,WindDirectionDegrees,WindSpeedMPH,WindSpeedGustMPH,Humidity,HourlyPrecipIn,Conditions,Clouds,dailyrainin,SoftwareType,DateUTC
2013-05-28 00:00:00,59.2,55.6,30.13,SE,129,0.0,5.0,88,0.00,,,0.00,Wunderground v.1.15,2013-05-28 04:00:00,
2013-05-28 00:05:00,59.2,55.6,30.13,SE,129,0.0,5.0,88,0.00,,,0.00,Wunderground v.1.15,2013-05-28 04:05:00,
2013-05-28 00:10:00,59.1,55.5,30.13,SE,129,0.0,0.0,88,0.00,,,0.00,Wunderground v.1.15,2013-05-28 04:10:00,
2013-05-28 00:15:00,59.0,55.8,30.13,SE,129,0.0,0.0,89,0.00,,,0.00,Wunderground v.1.15,2013-05-28 04:15:00,
2013-05-28 00:20:00,58.9,55.7,30.13,SE,124,0.0,0.0,89,0.00,,,0.00,Wunderground v.1.15,2013-05-28 04:20:00,
2013-05-28 00:25:00,58.9,55.7,30.13,SSE,150,0.0,0.0,89,0.00,,,0.00,Wunderground v.1.15,2013-05-28 04:25:00,
2013-05-28 00:35:00,58.8,55.9,30.13,SE,146,0.0,0.0,90,0.00,,,0.00,Wunderground v.1.15,2013-05-28 04:35:00,
2013-05-28 00:40:00,58.8,55.9,30.13,SSE,154,0.0,0.0,90,0.00,,,0.00,Wunderground v.1.15,2013-05-28 04:40:00,
2013-05-28 00:45:00,58.8,55.9,30.13,West,273,0.0,1.0,90,0.00,,,0.00,Wunderground v.1.15,2013-05-28 04:45:00,
2013-05-28 00:50:00,58.8,55.9,30.13,SE,127,0.0,0.0,90,0.00,,,0.00,Wunderground v.1.15,2013-05-28 04:50:00,
2013-05-28 01:00:00,58.8,55.3,30.13,SSE,155,1.0,1.0,88,0.00,,,0.00,Wunderground v.1.15,2013-05-28 05:00:00,
2013-05-28 01:05:00,58.9,55.4,30.13,SSE,160,0.0,1.0,88,0.00,,,0.00,Wunderground v.1.15,2013-05-28 05:05:00,
2013-05-28 01:10:00,59.0,55.4,30.13,SE,135,0.0,0.0,88,0.00,,,0.00,Wunderground v.1.15,2013-05-28 05:10:00,
2013-05-28 01:15:00,59.2,55.6,30.12,ESE,113,0.0,0.0,88,0.00,,,0.00,Wunderground v.1.15,2013-05-28 05:15:00,
2013-05-28 01:20:00,59.3,55.7,30.12,ESE,117,0.0,0.0,88,0.00,,,0.00,Wunderground v.1.15,2013-05-28 05:20:00,
2013-05-28 01:30:00,59.6,56.0,30.12,South,179,0.0,0.0,88,0.00,,,0.00,Wunderground v.1.15,2013-05-28 05:30:00,
2013-05-28 01:35:00,59.7,55.8,30.12,SSE,156,0.0,0.0,87,0.00,,,0.00,Wunderground v.1.15,2013-05-28 05:35:00,
2013-05-28 01:40:00,59.9,56.0,30.12,SE,141,0.0,0.0,87,0.00,,,0.00,Wunderground v.1.15,2013-05-28 05:40:00,
2013-05-28 01:45:00,60.0,56.4,30.12,SE,141,0.0,0.0,88,0.00,,,0.00,Wunderground v.1.15,2013-05-28 05:45:00,
2013-05-28 01:54:00,60.1,56.5,30.12,SE,127,0.0,0.0,88,0.00,,,0.00,Wunderground v.1.15,2013-05-28 05:54:00,
2013-05-28 02:00:00,60.1,56.5,30.12,ESE,115,0.0,0.0,88,0.00,,,0.00,Wunderground v.1.15,2013-05-28 06:00:00,
2013-05-28 02:05:00,60.1,56.5,30.12,ESE,113,0.0,0.0,88,0.00,,,0.00,Wunderground v.1.15,2013-05-28 06:05:00,
2013-05-28 02:10:00,60.1,56.5,30.12,SSW,211,0.0,0.0,88,0.00,,,0.00,Wunderground v.1.15,2013-05-28 06:10:00,
2013-05-28 02:15:00,60.1,56.5,30.11,SSW,199,0.0,0.0,88,0.00,,,0.00,Wunderground v.1.15,2013-05-28 06:15:00,
2013-05-28 02:25:00,60.1,56.5,30.11,ESE,108,0.0,0.0,88,0.00,,,0.00,Wunderground v.1.15,2013-05-28 06:25:00,
2013-05-28 02:30:00,60.1,56.8,30.12,ESE,123,0.0,3.0,89,0.00,,,0.00,Wunderground v.1.15,2013-05-28 06:30:00,
2013-05-28 02:35:00,60.1,56.8,30.12,SSE,156,0.0,3.0,89,0.00,,,0.00,Wunderground v.1.15,2013-05-28 06:35:00,
2013-05-28 02:40:00,60.0,56.7,30.12,SE,135,0.0,0.0,89,0.00,,,0.00,Wunderground v.1.15,2013-05-28 06:40:00,
2013-05-28 02:49:00,59.9,56.6,30.12,ESE,112,0.0,0.0,89,0.00,,,0.00,Wunderground v.1.15,2013-05-28 06:49:00,
2013-05-28 02:55:00,59.9,57.0,30.12,ESE,112,0.0,0.0,90,0.00,,,0.00,Wunderground v.1.15,2013-05-28 06:55:00,
2013-05-28 03:00:00,59.9,57.0,30.10,ESE,112,0.0,0.0,90,0.00,,,0.00,Wunderground v.1.15,2013-05-28 07:00:00,
2013-05-28 03:05:00,59.9,57.3,30.10,ESE,112,0.0,0.0,91,0.00,,,0.00,Wunderground v.1.15,2013-05-28 07:05:00,
2013-05-28 03:10:00,59.8,56.9,30.10,ESE,112,0.0,0.0,90,0.00,,,0.00,Wunderground v.1.15,2013-05-28 07:10:00,
2013-05-28 03:20:00,59.7,57.1,30.10,ESE,112,0.0,0.0,91,0.00,,,0.00,Wunderground v.1.15,2013-05-28 07:20:00,
2013-05-28 03:25:00,59.6,57.0,30.10,ESE,112,0.0,0.0,91,0.00,,,0.00,Wunderground v.1.15,2013-05-28 07:25:00,
2013-05-28 03:30:00,59.5,56.9,30.10,ESE,112,0.0,0.0,91,0.00,,,0.00,Wunderground v.1.15,2013-05-28 07:30:00,
2013-05-28 03:35:00,59.4,56.8,30.10,ESE,112,0.0,0.0,91,0.00,,,0.00,Wunderground v.1.15,2013-05-28 07:35:00,
2013-05-28 03:40:00,59.3,56.7,30.10,ESE,112,0.0,0.0,91,0.00,,,0.00,Wunderground v.1.15,2013-05-28 07:40:00,
2013-05-28 03:50:00,59.2,56.6,30.11,ESE,112,0.0,0.0,91,0.00,,,0.00,Wunderground v.1.15,2013-05-28 07:50:00,
2013-05-28 03:55:00,59.1,56.8,30.11,ESE,112,0.0,0.0,92,0.00,,,0.00,Wunderground v.1.15,2013-05-28 07:55:00,
2013-05-28 04:00:00,59.0,56.7,30.10,ESE,112,0.0,0.0,92,0.00,,,0.00,Wunderground v.1.15,2013-05-28 08:00:00,
2013-05-28 04:05:00,58.9,56.6,30.10,ESE,112,0.0,0.0,92,0.00,,,0.00,Wunderground v.1.15,2013-05-28 08:05:00,
2013-05-28 04:14:00,58.8,56.5,30.10,ESE,112,0.0,0.0,92,0.00,,,0.00,Wunderground v.1.15,2013-05-28 08:14:00,
2013-05-28 04:20:00,58.7,56.4,30.10,ESE,112,0.0,0.0,92,0.00,,,0.00,Wunderground v.1.15,2013-05-28 08:20:00,
2013-05-28 04:25:00,58.7,56.7,30.10,ESE,112,0.0,0.0,93,0.00,,,0.00,Wunderground v.1.15,2013-05-28 08:25:00,
2013-05-28 04:30:00,58.6,56.6,30.10,ESE,108,0.0,0.0,93,0.00,,,0.00,Wunderground v.1.15,2013-05-28 08:30:00,
2013-05-28 04:39:00,58.5,56.5,30.10,ESE,108,0.0,0.0,93,0.00,,,0.00,Wunderground v.1.15,2013-05-28 08:39:00,
2013-05-28 04:45:00,58.5,56.8,30.10,ESE,108,0.0,0.0,94,0.00,,,0.00,Wunderground v.1.15,2013-05-28 08:45:00,
2013-05-28 04:50:00,58.5,56.8,30.10,ESE,120,0.0,1.0,94,0.00,,,0.00,Wunderground v.1.15,2013-05-28 08:50:00,
2013-05-28 04:55:00,58.5,56.8,30.10,ESE,120,0.0,1.0,94,0.00,,,0.00,Wunderground v.1.15,2013-05-28 08:55:00,
2013-05-28 05:00:00,58.4,56.7,30.11,South,174,0.0,0.0,94,0.00,,,0.00,Wunderground v.1.15,2013-05-28 09:00:00,
2013-05-28 05:09:00,58.4,56.7,30.11,SW,216,0.0,0.0,94,0.00,,,0.00,Wunderground v.1.15,2013-05-28 09:09:00,
2013-05-28 05:15:00,58.5,57.1,30.11,SW,215,0.0,0.0,95,0.00,,,0.00,Wunderground v.1.15,2013-05-28 09:15:00,
2013-05-28 05:20:00,58.6,57.2,30.11,SW,215,0.0,0.0,95,0.00,,,0.00,Wunderground v.1.15,2013-05-28 09:20:00,
2013-05-28 05:25:00,58.6,57.2,30.11,SE,136,0.0,1.0,95,0.00,,,0.00,Wunderground v.1.15,2013-05-28 09:25:00,
2013-05-28 05:30:00,58.6,57.2,30.11,SE,136,0.0,0.0,95,0.00,,,0.00,Wunderground v.1.15,2013-05-28 09:30:00,
2013-05-28 05:40:00,58.7,57.3,30.11,SE,136,0.0,1.0,95,0.00,,,0.00,Wunderground v.1.15,2013-05-28 09:40:00,
2013-05-28 05:45:00,58.7,57.3,30.12,SE,139,0.0,1.0,95,0.00,,,0.00,Wunderground v.1.15,2013-05-28 09:45:00,
2013-05-28 05:50:00,58.8,57.7,30.12,SE,139,0.0,0.0,96,0.00,,,0.00,Wunderground v.1.15,2013-05-28 09:50:00,
2013-05-28 05:55:00,58.8,57.7,30.12,SE,139,0.0,0.0,96,0.00,,,0.00,Wunderground v.1.15,2013-05-28 09:55:00,
2013-05-28 06:04:00,58.8,57.4,30.12,SE,139,0.0,0.0,95,0.00,,,0.00,Wunderground v.1.15,2013-05-28 10:04:00,
2013-05-28 06:09:00,58.8,57.4,30.12,SE,139,0.0,0.0,95,0.00,,,0.00,Wunderground v.1.15,2013-05-28 10:09:00,
2013-05-28 06:15:00,58.8,57.7,30.13,SE,139,0.0,0.0,96,0.00,,,0.00,Wunderground v.1.15,2013-05-28 10:15:00,
2013-05-28 06:20:00,58.7,57.6,30.13,SE,139,0.0,0.0,96,0.00,,,0.00,Wunderground v.1.15,2013-05-28 10:20:00,
2013-05-28 06:25:00,58.7,57.3,30.13,SE,139,0.0,0.0,95,0.00,,,0.00,Wunderground v.1.15,2013-05-28 10:25:00,
2013-05-28 06:35:00,58.7,57.6,30.14,SE,139,0.0,0.0,96,0.00,,,0.00,Wunderground v.1.15,2013-05-28 10:35:00,
2013-05-28 06:40:00,58.7,57.6,30.14,SE,139,0.0,0.0,96,0.00,,,0.00,Wunderground v.1.15,2013-05-28 10:40:00,
2013-05-28 06:45:00,58.8,57.7,30.15,SE,140,0.0,0.0,96,0.00,,,0.00,Wunderground v.1.15,2013-05-28 10:45:00,
2013-05-28 06:50:00,58.8,57.7,30.15,SE,140,0.0,0.0,96,0.00,,,0.00,Wunderground v.1.15,2013-05-28 10:50:00,
2013-05-28 06:55:00,58.8,57.7,30.15,SE,140,0.0,0.0,96,0.00,,,0.00,Wunderground v.1.15,2013-05-28 10:55:00,
2013-05-28 07:05:00,58.9,57.8,30.15,SE,140,0.0,0.0,96,0.00,,,0.00,Wunderground v.1.15,2013-05-28 11:05:00,
2013-05-28 07:10:00,59.0,57.9,30.15,SE,140,0.0,0.0,96,0.00,,,0.00,Wunderground v.1.15,2013-05-28 11:10:00,
2013-05-28 07:15:00,59.2,58.3,30.17,SE,140,0.0,0.0,97,0.00,,,0.00,Wunderground v.1.15,2013-05-28 11:15:00,
2013-05-28 07:20:00,59.3,58.2,30.17,SE,140,0.0,0.0,96,0.00,,,0.00,Wunderground v.1.15,2013-05-28 11:20:00,
2013-05-28 07:25:00,59.5,58.4,30.17,SE,140,0.0,0.0,96,0.00,,,0.00,Wunderground v.1.15,2013-05-28 11:25:00,
2013-05-28 07:35:00,59.7,58.6,30.17,SE,140,0.0,0.0,96,0.00,,,0.00,Wunderground v.1.15,2013-05-28 11:35:00,
2013-05-28 07:40:00,60.0,59.1,30.17,SE,140,0.0,0.0,97,0.00,,,0.00,Wunderground v.1.15,2013-05-28 11:40:00,
2013-05-28 07:45:00,60.2,59.3,30.16,South,181,0.0,0.0,97,0.00,,,0.00,Wunderground v.1.15,2013-05-28 11:45:00,
2013-05-28 07:50:00,60.5,59.6,30.16,South,190,0.0,0.0,97,0.00,,,0.00,Wunderground v.1.15,2013-05-28 11:50:00,
2013-05-28 07:59:00,61.1,60.2,30.16,South,184,1.0,1.0,97,0.00,,,0.00,Wunderground v.1.15,2013-05-28 11:59:00,
2013-05-28 08:05:00,61.5,60.6,30.17,SSE,158,1.0,1.0,97,0.00,,,0.00,Wunderground v.1.15,2013-05-28 12:05:00,
2013-05-28 08:10:00,61.9,61.0,30.17,SW,214,1.0,1.0,97,0.00,,,0.00,Wunderground v.1.15,2013-05-28 12:10:00,
2013-05-28 08:15:00,62.2,61.0,30.17,East,98,0.0,1.0,96,0.00,,,0.00,Wunderground v.1.15,2013-05-28 12:15:00,
2013-05-28 08:24:00,62.5,61.0,30.17,East,98,0.0,0.0,95,0.00,,,0.00,Wunderground v.1.15,2013-05-28 12:24:00,
2013-05-28 08:29:00,62.8,61.3,30.18,East,98,0.0,0.0,95,0.00,,,0.00,Wunderground v.1.15,2013-05-28 12:29:00,
2013-05-28 08:35:00,63.2,61.7,30.18,SSW,199,0.0,1.0,95,0.00,,,0.00,Wunderground v.1.15,2013-05-28 12:35:00,
2013-05-28 08:40:00,63.5,62.0,30.18,West,262,0.0,0.0,95,0.00,,,0.00,Wunderground v.1.15,2013-05-28 12:40:00,
2013-05-28 08:45:00,63.8,62.3,30.18,SSE,168,0.0,0.0,95,0.00,,,0.00,Wunderground v.1.15,2013-05-28 12:45:00,
2013-05-28 08:54:00,64.7,63.2,30.18,WNW,290,0.0,1.0,95,0.00,,,0.00,Wunderground v.1.15,2013-05-28 12:54:00,
2013-05-28 08:59:00,65.4,63.3,30.18,West,272,1.0,1.0,93,0.00,,,0.00,Wunderground v.1.15,2013-05-28 12:59:00,
2013-05-28 09:05:00,66.1,63.4,30.18,WSW,254,1.0,1.0,91,0.00,,,0.00,Wunderground v.1.15,2013-05-28 13:05:00,
2013-05-28 09:10:00,66.6,63.9,30.18,SW,226,1.0,1.0,91,0.00,,,0.00,Wunderground v.1.15,2013-05-28 13:10:00,
2013-05-28 09:15:00,66.9,64.2,30.18,SSW,213,0.0,1.0,91,0.00,,,0.00,Wunderground v.1.15,2013-05-28 13:15:00,
2013-05-28 09:25:00,67.5,63.5,30.18,WSW,249,1.0,2.0,87,0.00,,,0.00,Wunderground v.1.15,2013-05-28 13:25:00,
2013-05-28 09:30:00,67.9,63.9,30.17,WSW,257,1.0,1.0,87,0.00,,,0.00,Wunderground v.1.15,2013-05-28 13:30:00,
2013-05-28 09:35:00,68.1,64.4,30.17,South,185,1.0,1.0,88,0.00,,,0.00,Wunderground v.1.15,2013-05-28 13:35:00,
2013-05-28 09:40:00,68.4,64.4,30.17,WSW,254,1.0,1.0,87,0.00,,,0.00,Wunderground v.1.15,2013-05-28 13:40:00,
2013-05-28 09:45:00,68.7,64.7,30.17,WSW,250,1.0,1.0,87,0.00,,,0.00,Wunderground v.1.15,2013-05-28 13:45:00,
2013-05-28 09:55:00,69.6,64.9,30.17,ESE,113,1.0,3.0,85,0.00,,,0.00,Wunderground v.1.15,2013-05-28 13:55:00,
2013-05-28 10:00:00,69.9,64.5,30.16,WSW,252,1.0,1.0,83,0.00,,,0.00,Wunderground v.1.15,2013-05-28 14:00:00,
2013-05-28 10:05:00,70.4,65.3,30.16,SW,214,1.0,2.0,84,0.00,,,0.00,Wunderground v.1.15,2013-05-28 14:05:00,
2013-05-28 10:10:00,70.7,65.3,30.16,SW,231,1.0,1.0,83,0.00,,,0.00,Wunderground v.1.15,2013-05-28 14:10:00,
2013-05-28 10:15:00,71.1,65.7,30.16,ESE,123,1.0,1.0,83,0.00,,,0.00,Wunderground v.1.15,2013-05-28 14:15:00,
2013-05-28 10:25:00,71.8,64.6,30.16,NNW,328,1.0,3.0,78,0.00,,,0.00,Wunderground v.1.15,2013-05-28 14:25:00,
2013-05-28 10:30:00,72.3,65.4,30.17,WNW,302,2.0,2.0,79,0.00,,,0.00,Wunderground v.1.15,2013-05-28 14:30:00,
2013-05-28 10:39:00,73.2,65.6,30.17,West,281,1.0,2.0,77,0.00,,,0.00,Wunderground v.1.15,2013-05-28 14:39:00,
2013-05-28 10:45:00,73.7,66.0,30.16,WSW,258,1.0,2.0,77,0.00,,,0.00,Wunderground v.1.15,2013-05-28 14:45:00,
2013-05-28 10:50:00,74.0,66.0,30.16,East,80,1.0,1.0,76,0.00,,,0.00,Wunderground v.1.15,2013-05-28 14:50:00,
2013-05-28 10:55:00,74.4,66.0,30.16,South,179,1.0,2.0,75,0.00,,,0.00,Wunderground v.1.15,2013-05-28 14:55:00,
2013-05-28 11:00:00,74.9,67.2,30.16,SSW,203,2.0,2.0,77,0.00,,,0.00,Wunderground v.1.15,2013-05-28 15:00:00,
2013-05-28 11:09:00,76.2,66.9,30.16,South,188,2.0,2.0,73,0.00,,,0.00,Wunderground v.1.15,2013-05-28 15:09:00,
2013-05-28 11:15:00,76.7,67.0,30.17,SW,226,2.0,2.0,72,0.00,,,0.00,Wunderground v.1.15,2013-05-28 15:15:00,
2013-05-28 11:20:00,77.4,66.8,30.17,WSW,247,1.0,1.0,70,0.00,,,0.00,Wunderground v.1.15,2013-05-28 15:20:00,
2013-05-28 11:25:00,78.2,65.5,30.17,East,85,1.0,1.0,65,0.00,,,0.00,Wunderground v.1.15,2013-05-28 15:25:00,
2013-05-28 11:30:00,78.6,67.2,30.16,ESE,111,2.0,2.0,68,0.00,,,0.00,Wunderground v.1.15,2013-05-28 15:30:00,
2013-05-28 11:39:00,79.1,65.9,30.16,SSW,198,2.0,2.0,64,0.00,,,0.00,Wunderground v.1.15,2013-05-28 15:39:00,
2013-05-28 11:45:00,79.3,67.0,30.16,SW,220,2.0,2.0,66,0.00,,,0.00,Wunderground v.1.15,2013-05-28 15:45:00,
2013-05-28 11:50:00,79.7,65.5,30.16,West,281,2.0,2.0,62,0.00,,,0.00,Wunderground v.1.15,2013-05-28 15:50:00,
2013-05-28 11:55:00,80.1,67.3,30.16,SSW,211,2.0,2.0,65,0.00,,,0.00,Wunderground v.1.15,2013-05-28 15:55:00,
2013-05-28 12:00:00,80.5,68.1,30.15,South,185,2.0,5.0,66,0.00,,,0.00,Wunderground v.1.15,2013-05-28 16:00:00,
2013-05-28 12:05:00,80.7,66.5,30.15,West,278,2.0,9.0,62,0.00,,,0.00,Wunderground v.1.15,2013-05-28 16:05:00,
2013-05-28 12:15:00,81.1,66.4,30.15,SSW,200,2.0,9.0,61,0.00,,,0.00,Wunderground v.1.15,2013-05-28 16:15:00,
2013-05-28 12:25:00,81.4,66.2,30.15,West,260,2.0,3.0,60,0.00,,,0.00,Wunderground v.1.15,2013-05-28 16:25:00,
2013-05-28 12:30:00,81.7,66.9,30.15,North,0,2.0,2.0,61,0.00,,,0.00,Wunderground v.1.15,2013-05-28 16:30:00,
2013-05-28 12:35:00,82.1,68.3,30.15,SE,131,2.0,7.0,63,0.00,,,0.00,Wunderground v.1.15,2013-05-28 16:35:00,
2013-05-28 12:40:00,82.1,66.8,30.15,West,274,3.0,9.0,60,0.00,,,0.00,Wunderground v.1.15,2013-05-28 16:40:00,
2013-05-28 12:49:00,82.3,68.4,30.14,WNW,302,2.0,9.0,63,0.00,,,0.00,Wunderground v.1.15,2013-05-28 16:49:00,
2013-05-28 12:55:00,82.4,67.1,30.14,WSW,250,2.0,9.0,60,0.00,,,0.00,Wunderground v.1.15,2013-05-28 16:55:00,
2013-05-28 13:00:00,82.7,66.9,30.13,SSW,198,2.0,9.0,59,0.00,,,0.00,Wunderground v.1.15,2013-05-28 17:00:00,
2013-05-28 13:05:00,82.7,67.9,30.13,SSW,203,2.0,9.0,61,0.00,,,0.00,Wunderground v.1.15,2013-05-28 17:05:00,
2013-05-28 13:14:00,83.1,68.3,30.13,SSE,165,2.0,9.0,61,0.00,,,0.00,Wunderground v.1.15,2013-05-28 17:14:00,
2013-05-28 13:19:00,83.5,68.6,30.13,SSW,200,1.0,9.0,61,0.00,,,0.00,Wunderground v.1.15,2013-05-28 17:19:00,
2013-05-28 13:25:00,83.6,66.8,30.13,SSW,203,2.0,9.0,57,0.00,,,0.00,Wunderground v.1.15,2013-05-28 17:25:00,
2013-05-28 13:30:00,83.4,67.1,30.13,WNW,300,2.0,2.0,58,0.00,,,0.00,Wunderground v.1.15,2013-05-28 17:30:00,
2013-05-28 13:35:00,83.4,68.1,30.13,SW,231,2.0,9.0,60,0.00,,,0.00,Wunderground v.1.15,2013-05-28 17:35:00,
2013-05-28 13:44:00,83.8,68.9,30.13,SE,145,2.0,9.0,61,0.00,,,0.00,Wunderground v.1.15,2013-05-28 17:44:00,
2013-05-28 13:49:00,83.9,69.0,30.12,West,262,2.0,2.0,61,0.00,,,0.00,Wunderground v.1.15,2013-05-28 17:49:00,
2013-05-28 13:55:00,84.0,69.1,30.12,ESE,115,1.0,9.0,61,0.00,,,0.00,Wunderground v.1.15,2013-05-28 17:55:00,
2013-05-28 14:00:00,84.3,68.4,30.11,SSE,160,1.0,9.0,59,0.00,,,0.00,Wunderground v.1.15,2013-05-28 18:00:00,
2013-05-28 14:05:00,84.3,69.4,30.11,SSW,193,2.0,9.0,61,0.00,,,0.00,Wunderground v.1.15,2013-05-28 18:05:00,
2013-05-28 14:14:00,84.4,69.0,30.11,WNW,291,2.0,9.0,60,0.00,,,0.00,Wunderground v.1.15,2013-05-28 18:14:00,
2013-05-28 14:20:00,84.3,67.9,30.11,West,261,2.0,2.0,58,0.00,,,0.00,Wunderground v.1.15,2013-05-28 18:20:00,
2013-05-28 14:25:00,84.2,69.3,30.11,SSE,158,2.0,9.0,61,0.00,,,0.00,Wunderground v.1.15,2013-05-28 18:25:00,
2013-05-28 14:30:00,83.9,67.0,30.11,SW,222,2.0,2.0,57,0.00,,,0.00,Wunderground v.1.15,2013-05-28 18:30:00,
2013-05-28 14:35:00,83.8,69.4,30.11,ENE,78,2.0,9.0,62,0.00,,,0.00,Wunderground v.1.15,2013-05-28 18:35:00,
2013-05-28 14:45:00,83.2,67.9,30.11,SW,224,2.0,9.0,60,0.00,,,0.00,Wunderground v.1.15,2013-05-28 18:45:00,
2013-05-28 14:50:00,82.9,68.5,30.11,SSE,165,2.0,2.0,62,0.00,,,0.00,Wunderground v.1.15,2013-05-28 18:50:00,
2013-05-28 14:55:00,82.4,67.6,30.11,South,181,2.0,9.0,61,0.00,,,0.00,Wunderground v.1.15,2013-05-28 18:55:00,
2013-05-28 15:00:00,82.1,67.8,30.10,East,81,2.0,2.0,62,0.00,,,0.00,Wunderground v.1.15,2013-05-28 19:00:00,
2013-05-28 15:09:00,82.2,67.4,30.10,SSW,209,2.0,2.0,61,0.00,,,0.00,Wunderground v.1.15,2013-05-28 19:09:00,
2013-05-28 15:15:00,82.3,67.5,30.11,SSW,194,2.0,9.0,61,0.00,,,0.00,Wunderground v.1.15,2013-05-28 19:15:00,
2013-05-28 15:20:00,82.2,67.9,30.11,NNW,334,1.0,9.0,62,0.00,,,0.00,Wunderground v.1.15,2013-05-28 19:20:00,
2013-05-28 15:25:00,82.0,68.2,30.11,SSW,198,1.0,9.0,63,0.00,,,0.00,Wunderground v.1.15,2013-05-28 19:25:00,
2013-05-28 15:34:00,81.6,67.8,30.10,SSE,163,2.0,3.0,63,0.00,,,0.00,Wunderground v.1.15,2013-05-28 19:34:00,
2013-05-28 15:39:00,81.1,67.3,30.10,West,263,2.0,2.0,63,0.00,,,0.00,Wunderground v.1.15,2013-05-28 19:39:00,
2013-05-28 15:45:00,80.9,67.1,30.10,SSE,154,2.0,9.0,63,0.00,,,0.00,Wunderground v.1.15,2013-05-28 19:45:00,
2013-05-28 15:50:00,80.8,67.9,30.10,WNW,289,2.0,2.0,65,0.00,,,0.00,Wunderground v.1.15,2013-05-28 19:50:00,
2013-05-28 15:59:00,80.7,67.4,30.10,SSE,167,1.0,9.0,64,0.00,,,0.00,Wunderground v.1.15,2013-05-28 19:59:00,
2013-05-28 16:05:00,80.9,67.6,30.10,ESE,121,2.0,9.0,64,0.00,,,0.00,Wunderground v.1.15,2013-05-28 20:05:00,
2013-05-28 16:10:00,81.2,67.9,30.10,WSW,252,2.0,9.0,64,0.00,,,0.00,Wunderground v.1.15,2013-05-28 20:10:00,
2013-05-28 16:15:00,81.3,67.0,30.10,SSW,193,2.0,9.0,62,0.00,,,0.00,Wunderground v.1.15,2013-05-28 20:15:00,
2013-05-28 16:20:00,81.2,67.4,30.10,South,187,2.0,9.0,63,0.00,,,0.00,Wunderground v.1.15,2013-05-28 20:20:00,
2013-05-28 16:29:00,81.0,68.1,30.10,NE,53,2.0,2.0,65,0.00,,,0.00,Wunderground v.1.15,2013-05-28 20:29:00,
2013-05-28 16:35:00,80.9,68.5,30.09,South,176,1.0,9.0,66,0.00,,,0.00,Wunderground v.1.15,2013-05-28 20:35:00,
2013-05-28 16:40:00,80.6,67.7,30.09,SSW,200,1.0,9.0,65,0.00,,,0.00,Wunderground v.1.15,2013-05-28 20:40:00,
2013-05-28 16:45:00,80.5,67.6,30.09,NNW,347,1.0,9.0,65,0.00,,,0.00,Wunderground v.1.15,2013-05-28 20:45:00,
2013-05-28 16:50:00,80.5,67.2,30.09,SSE,156,2.0,2.0,64,0.00,,,0.00,Wunderground v.1.15,2013-05-28 20:50:00,
2013-05-28 16:59:00,80.5,67.2,30.09,SW,229,2.0,9.0,64,0.00,,,0.00,Wunderground v.1.15,2013-05-28 20:59:00,
2013-05-28 17:05:00,80.2,66.5,30.09,SSW,210,2.0,9.0,63,0.00,,,0.00,Wunderground v.1.15,2013-05-28 21:05:00,
2013-05-28 17:10:00,80.0,66.7,30.09,SSE,155,3.0,3.0,64,0.00,,,0.00,Wunderground v.1.15,2013-05-28 21:10:00,
2013-05-28 17:15:00,79.7,67.3,30.08,SSW,193,2.0,9.0,66,0.00,,,0.00,Wunderground v.1.15,2013-05-28 21:15:00,
2013-05-28 17:24:00,79.4,67.5,30.08,SE,141,2.0,9.0,67,0.00,,,0.00,Wunderground v.1.15,2013-05-28 21:24:00,
2013-05-28 17:29:00,79.3,67.4,30.09,WNW,292,1.0,9.0,67,0.00,,,0.00,Wunderground v.1.15,2013-05-28 21:29:00,
2013-05-28 17:35:00,79.1,67.6,30.09,NNE,23,1.0,9.0,68,0.00,,,0.00,Wunderground v.1.15,2013-05-28 21:35:00,
2013-05-28 17:40:00,79.1,67.6,30.09,ESE,105,2.0,2.0,68,0.00,,,0.00,Wunderground v.1.15,2013-05-28 21:40:00,
2013-05-28 17:45:00,78.9,66.6,30.09,SSW,198,3.0,3.0,66,0.00,,,0.00,Wunderground v.1.15,2013-05-28 21:45:00,
2013-05-28 17:55:00,78.6,67.2,30.09,West,261,2.0,9.0,68,0.00,,,0.00,Wunderground v.1.15,2013-05-28 21:55:00,
2013-05-28 18:00:00,78.4,67.0,30.09,South,188,2.0,2.0,68,0.00,,,0.00,Wunderground v.1.15,2013-05-28 22:00:00,
2013-05-28 18:05:00,78.2,67.2,30.09,SSW,195,2.0,9.0,69,0.00,,,0.00,Wunderground v.1.15,2013-05-28 22:05:00,
2013-05-28 18:10:00,78.1,66.7,30.09,SE,131,2.0,2.0,68,0.00,,,0.00,Wunderground v.1.15,2013-05-28 22:10:00,
2013-05-28 18:19:00,78.0,66.2,30.08,SSE,167,1.0,9.0,67,0.00,,,0.00,Wunderground v.1.15,2013-05-28 22:19:00,
2013-05-28 18:25:00,77.9,66.9,30.08,SSW,212,2.0,9.0,69,0.00,,,0.00,Wunderground v.1.15,2013-05-28 22:25:00,
2013-05-28 18:30:00,77.8,66.0,30.08,South,185,2.0,9.0,67,0.00,,,0.00,Wunderground v.1.15,2013-05-28 22:30:00,
2013-05-28 18:35:00,77.8,66.4,30.08,SW,226,2.0,9.0,68,0.00,,,0.00,Wunderground v.1.15,2013-05-28 22:35:00,
2013-05-28 18:45:00,77.5,66.5,30.08,WNW,283,1.0,9.0,69,0.00,,,0.00,Wunderground v.1.15,2013-05-28 22:45:00,
2013-05-28 18:50:00,77.3,66.3,30.08,SW,222,1.0,9.0,69,0.00,,,0.00,Wunderground v.1.15,2013-05-28 22:50:00,
2013-05-28 18:55:00,77.2,66.7,30.08,West,270,1.0,9.0,70,0.00,,,0.00,Wunderground v.1.15,2013-05-28 22:55:00,
2013-05-28 19:05:00,76.9,66.4,30.08,SW,221,1.0,4.0,70,0.00,,,0.00,Wunderground v.1.15,2013-05-28 23:05:00,
2013-05-28 19:10:00,76.7,66.2,30.08,ENE,72,1.0,1.0,70,0.00,,,0.00,Wunderground v.1.15,2013-05-28 23:10:00,
2013-05-28 19:15:00,76.5,66.0,30.07,SSE,162,1.0,9.0,70,0.00,,,0.00,Wunderground v.1.15,2013-05-28 23:15:00,
2013-05-28 19:20:00,76.4,65.9,30.07,South,172,1.0,9.0,70,0.00,,,0.00,Wunderground v.1.15,2013-05-28 23:20:00,
2013-05-28 19:29:00,76.0,65.9,30.07,SW,219,0.0,9.0,71,0.00,,,0.00,Wunderground v.1.15,2013-05-28 23:29:00,
2013-05-28 19:35:00,75.9,65.8,30.08,SSW,200,0.0,9.0,71,0.00,,,0.00,Wunderground v.1.15,2013-05-28 23:35:00,
2013-05-28 19:40:00,75.7,66.0,30.08,South,172,0.0,9.0,72,0.00,,,0.00,Wunderground v.1.15,2013-05-28 23:40:00,
2013-05-28 19:45:00,75.5,65.8,30.08,South,172,0.0,9.0,72,0.00,,,0.00,Wunderground v.1.15,2013-05-28 23:45:00,
2013-05-28 19:50:00,75.3,65.6,30.08,South,172,0.0,9.0,72,0.00,,,0.00,Wunderground v.1.15,2013-05-28 23:50:00,
2013-05-28 19:59:00,75.0,65.8,30.08,SE,128,0.0,9.0,73,0.00,,,0.00,Wunderground v.1.15,2013-05-28 23:59:00,
2013-05-28 20:05:00,74.7,65.9,30.08,SE,128,0.0,9.0,74,0.00,,,0.00,Wunderground v.1.15,2013-05-29 00:05:00,
2013-05-28 20:10:00,74.4,66.0,30.08,SE,128,0.0,9.0,75,0.00,,,0.00,Wunderground v.1.15,2013-05-29 00:10:00,
2013-05-28 20:15:00,74.0,66.0,30.08,SE,128,0.0,9.0,76,0.00,,,0.00,Wunderground v.1.15,2013-05-29 00:15:00,
2013-05-28 20:24:00,73.3,66.0,30.08,SE,128,0.0,9.0,78,0.00,,,0.00,Wunderground v.1.15,2013-05-29 00:24:00,
2013-05-28 20:29:00,73.0,66.1,30.08,SE,129,0.0,9.0,79,0.00,,,0.00,Wunderground v.1.15,2013-05-29 00:29:00,
2013-05-28 20:35:00,72.7,65.8,30.08,WSW,245,0.0,9.0,79,0.00,,,0.00,Wunderground v.1.15,2013-05-29 00:35:00,
2013-05-28 20:40:00,72.4,65.9,30.08,SSW,192,0.0,9.0,80,0.00,,,0.00,Wunderground v.1.15,2013-05-29 00:40:00,
2013-05-28 20:45:00,72.1,65.6,30.08,SSW,192,0.0,9.0,80,0.00,,,0.00,Wunderground v.1.15,2013-05-29 00:45:00,
2013-05-28 20:54:00,71.7,65.9,30.08,SE,133,0.0,9.0,82,0.00,,,0.00,Wunderground v.1.15,2013-05-29 00:54:00,
2013-05-28 20:59:00,71.5,65.7,30.08,SSW,199,0.0,9.0,82,0.00,,,0.00,Wunderground v.1.15,2013-05-29 00:59:00,
2013-05-28 21:05:00,71.2,65.8,30.08,South,186,0.0,9.0,83,0.00,,,0.00,Wunderground v.1.15,2013-05-29 01:05:00,
2013-05-28 21:10:00,71.0,65.6,30.08,South,186,0.0,9.0,83,0.00,,,0.00,Wunderground v.1.15,2013-05-29 01:10:00,
2013-05-28 21:15:00,70.8,65.4,30.08,SW,224,0.0,9.0,83,0.00,,,0.00,Wunderground v.1.15,2013-05-29 01:15:00,
2013-05-28 21:24:00,70.4,65.0,30.08,SW,224,0.0,9.0,83,0.00,,,0.00,Wunderground v.1.15,2013-05-29 01:24:00,
2013-05-28 21:30:00,70.2,64.8,30.08,SSW,203,0.0,9.0,83,0.00,,,0.00,Wunderground v.1.15,2013-05-29 01:30:00,
2013-05-28 21:35:00,69.9,64.8,30.08,SSW,203,0.0,9.0,84,0.00,,,0.00,Wunderground v.1.15,2013-05-29 01:35:00,
2013-05-28 21:40:00,69.7,64.6,30.08,SSW,203,0.0,9.0,84,0.00,,,0.00,Wunderground v.1.15,2013-05-29 01:40:00,
2013-05-28 21:49:00,69.4,64.7,30.08,South,190,0.0,9.0,85,0.00,,,0.00,Wunderground v.1.15,2013-05-29 01:49:00,
2013-05-28 21:55:00,69.3,64.9,30.08,South,191,0.0,9.0,86,0.00,,,0.00,Wunderground v.1.15,2013-05-29 01:55:00,
2013-05-28 22:00:00,69.1,65.1,30.08,South,191,0.0,9.0,87,0.00,,,0.00,Wunderground v.1.15,2013-05-29 02:00:00,
2013-05-28 22:05:00,69.0,65.0,30.08,South,171,0.0,9.0,87,0.00,,,0.00,Wunderground v.1.15,2013-05-29 02:05:00,
2013-05-28 22:10:00,68.8,64.8,30.08,WSW,247,0.0,9.0,87,0.00,,,0.00,Wunderground v.1.15,2013-05-29 02:10:00,
2013-05-28 22:19:00,68.7,64.7,30.08,SSE,150,0.0,9.0,87,0.00,,,0.00,Wunderground v.1.15,2013-05-29 02:19:00,
2013-05-28 22:25:00,68.6,64.6,30.08,SSW,202,0.0,9.0,87,0.00,,,0.00,Wunderground v.1.15,2013-05-29 02:25:00,
2013-05-28 22:30:00,68.5,64.5,30.09,East,94,0.0,9.0,87,0.00,,,0.00,Wunderground v.1.15,2013-05-29 02:30:00,
2013-05-28 22:35:00,68.4,64.4,30.09,SE,126,0.0,9.0,87,0.00,,,0.00,Wunderground v.1.15,2013-05-29 02:35:00,
2013-05-28 22:44:00,68.3,64.6,30.09,WSW,248,0.0,9.0,88,0.00,,,0.00,Wunderground v.1.15,2013-05-29 02:44:00,
2013-05-28 22:49:00,68.2,64.5,30.10,SSE,166,1.0,9.0,88,0.00,,,0.00,Wunderground v.1.15,2013-05-29 02:49:00,
2013-05-28 22:55:00,68.2,64.2,30.10,West,274,0.0,9.0,87,0.00,,,0.00,Wunderground v.1.15,2013-05-29 02:55:00,
2013-05-28 23:00:00,68.2,64.2,30.10,SW,221,0.0,9.0,87,0.00,,,0.00,Wunderground v.1.15,2013-05-29 03:00:00,
2013-05-28 23:05:00,68.1,64.1,30.10,SE,126,0.0,9.0,87,0.00,,,0.00,Wunderground v.1.15,2013-05-29 03:05:00,
2013-05-28 23:14:00,68.1,64.1,30.10,North,11,0.0,9.0,87,0.00,,,0.00,Wunderground v.1.15,2013-05-29 03:14:00,
2013-05-28 23:19:00,68.1,64.1,30.10,SW,221,0.0,9.0,87,0.00,,,0.00,Wunderground v.1.15,2013-05-29 03:19:00,
2013-05-28 23:25:00,68.0,64.0,30.10,NW,311,0.0,9.0,87,0.00,,,0.00,Wunderground v.1.15,2013-05-29 03:25:00,
2013-05-28 23:30:00,68.0,64.0,30.10,SSW,201,0.0,9.0,87,0.00,,,0.00,Wunderground v.1.15,2013-05-29 03:30:00,
2013-05-28 23:35:00,68.1,64.1,30.10,SE,132,0.0,9.0,87,0.00,,,0.00,Wunderground v.1.15,2013-05-29 03:35:00,
2013-05-28 23:44:00,68.0,64.0,30.10,South,183,0.0,9.0,87,0.00,,,0.00,Wunderground v.1.15,2013-05-29 03:44:00,
2013-05-28 23:50:00,68.0,64.0,30.10,ESE,120,1.0,9.0,87,0.00,,,0.00,Wunderground v.1.15,2013-05-29 03:50:00,
2013-05-28 23:55:00,67.9,63.9,30.10,SW,236,1.0,9.0,87,0.00,,,0.00,Wunderground v.1.15,2013-05-29 03:55:00,